This demonstration page uses our WeatherBlox Daily Observations layout. Learn more.

Left ArrowRight Arrow

40.97296, -117.73568

Hourly Observations for August 6, 2022

Temp ( °F °C ) Dew Point ( °F °C ) Humidity (%) Winds ( mph kmh ) Pressure ( in mb ) Visibility ( mi km ) Precip ( " mm )
12:56 am 00:56 Mostly Cloudy 65 18.3 63 17.2 93 93 S 10 17 29.93 1014 10 16 0.01 0.25
1:56 am 01:56 Mostly Cloudy 65 18.3 63 17.2 93 93 S 14 22 29.92 1013 10 16 0.00 0.00
2:56 am 02:56 Partly Cloudy 64 17.8 63 17.2 96 96 S 12 19 29.91 1013 10 16 0.01 0.25
3:56 am 03:56 Mostly Clear 64 17.8 62 16.7 93 93 S 9 15 29.96 1015 10 16 0.00 0.00
4:56 am 04:56 Mostly Clear 64 17.8 61 16.1 90 90 S 8 13 29.95 1014 10 16 0.00 0.00
5:56 am 05:56 Sunny 64 17.8 61 16.1 90 90 S 9 15 29.97 1015 10 16 0.00 0.00
6:56 am 06:56 Sunny 65 18.3 61 16.1 87 87 S 10 17 29.98 1015 10 16 0.00 0.00
7:56 am 07:56 Sunny 68 20 63 17.2 84 84 S 13 20 29.98 1015 10 16 0.00 0.00
8:56 am 08:56 Sunny 69 20.6 61 16.1 76 76 S 12 19 30.00 1016 10 16 0.00 0.00
9:56 am 09:56 Sunny 74 23.3 61 16.1 64 64 S 10 17 30.00 1016 10 16 0.00 0.00
10:56 am 10:56 Sunny 77 25 60 15.6 56 56 S 12 19 30.00 1016 10 16 0.00 0.00
11:56 am 11:56 Sunny 82 27.8 59 15 46 46 S 8 13 29.99 1016 10 16 0.00 0.00
12:56 pm 12:56 Mostly Cloudy 84 28.9 57 13.9 40 40 VRB 7 11 29.96 1015 10 16 0.00 0.00
1:56 pm 13:56 Mostly Cloudy 86 30 57 13.9 37 37 undefined N/A 29.94 1014 10 16 0.00 0.00
2:56 pm 14:56 Sunny 87 30.6 54 12.2 32 32 VRB 3 6 29.93 1014 10 16 0.00 0.00
3:56 pm 15:56 Mostly Sunny 87 30.6 52 11.1 30 30 S 6 9 29.91 1013 10 16 0.00 0.00
4:56 pm 16:56 Partly Cloudy 89 31.7 53 11.7 29 29 S 10 17 29.90 1012 10 16 0.00 0.00
5:56 pm 17:56 Sunny 88 31.1 53 11.7 30 30 S 12 19 29.89 1012 10 16 0.00 0.00
6:56 pm 18:56 Mostly Cloudy 80 26.7 52 11.1 38 38 N 14 22 29.91 1013 10 16 0.00 0.00
7:23 pm 19:23 Sunny 78 25.6 53 11.7 42 42 NE 21 33 29.77 1008 10 16 0.00 0.00
7:56 pm 19:56 Partly Cloudy 73 22.8 54 12.2 51 51 NE 15 24 29.95 1014 10 16 0.00 0.00
8:56 pm 20:56 Mostly Cloudy 74 23.3 53 11.7 48 48 NE 20 31 29.96 1015 10 16 0.00 0.00
9:56 pm 21:56 Mostly Cloudy 75 23.9 52 11.1 45 45 VRB 5 7 29.97 1015 10 16 0.00 0.00
10:56 pm 22:56 Mostly Cloudy 73 22.8 53 11.7 50 50 ENE 9 15 29.98 1015 10 16 0.00 0.00
11:56 pm 23:56 Clear 69 20.6 52 11.1 55 55 SSE 12 19 29.98 1015 10 16 0.00 0.00

Powered by AerisWeather